Hourly Data Report for May 14, 2020

OTTAWA INTL A
ONTARIO
Current Station Operator: NAVCAN

45°19'00.000" N
75°40'00.000" W
114.90 m
6106001
71628
YOW

Download Data

Hourly Data (May 2020)
Hourly Data Report for May 14, 2020
TIME
LST
Temp Definition
°C
Dew Point Definition
°C
Rel Hum Definition
%
Precip. Amount Definition
mm

Wind Dir Definition
10's deg

Wind Spd Definition
km/h
Visibility Definition
km
Stn Press Definition
kPa
Hmdx Definition


Wind Chill Definition


Weather Definition


00:00 4.6 -2.8 59   19 13 24.1 101.04     LegendNANA
01:00 2.6 -3.3 65   22 10 24.1 101.06     Clear
02:00 2.1 -3.5 66   25 13 24.1 101.06     LegendNANA
03:00 2.8 -5.0 57   30 13 24.1 101.04     LegendNANA
04:00 0.6 -5.0 66   31 11 24.1 101.02     Clear
05:00 2.7 -5.3 55   27 5 24.1 101.03     LegendNANA
06:00 5.2 -3.3 54   28 9 24.1 101.09     LegendNANA
07:00 7.8 -3.4 45   25 8 24.1 101.10     Clear
08:00 10.3 -5.1 33   26 7 24.1 101.08     LegendNANA
09:00 12.6 -4.4 30   26 7 24.1 101.04     LegendNANA
10:00 14.3 -4.7 26   23 15 24.1 100.97     Mainly Clear
11:00 15.8 -5.8 22   22 18 24.1 100.84     LegendNANA
12:00 16.4 -4.6 23   16 14 24.1 100.71     LegendNANA
13:00 17.6 -5.3 20   22 16 24.1 100.65     Mostly Cloudy
14:00 17.3 -4.2 23   25 11 24.1 100.54     LegendNANA
15:00 16.4 -4.6 23   19 13 24.1 100.46     LegendNANA
16:00 15.7 -5.0 24   18 6 24.1 100.37     Cloudy
17:00 15.9 -7.4 19   17 10 24.1 100.34     LegendNANA
18:00 15.5 -6.4 22   15 8 24.1 100.25     LegendNANA
19:00 14.0 -3.4 30   14 8 24.1 100.17     Cloudy
20:00 13.7 -5.5 26   19 9 24.1 100.18     LegendNANA
21:00 12.6 -3.0 33   36 3 24.1 100.14     LegendNANA
22:00 12.3 -2.1 37   10 10 24.1 99.99     Cloudy
23:00 12.7 -2.8 34   11 13 24.1 99.93     LegendNANA

Notes on Data Quality.

Legend

  • E = Estimated
  • M = Missing
  • NA = Not Available*
  • [empty] = Indicates an unobserved value
Date modified: